This is the latest recevied weather packets stored in our database for station/object AD0YN. If no packets are shown the sender has not sent any weather packets the latest 10 day(s).
| Time | Temp. | Humidity | Pressure | Rain* | Wind** | Luminosity | Snow |
|---|---|---|---|---|---|---|---|
| 1778007273 | 11.11° C | 67% | 1011.8 hPa | 0 mm | - | 170 W/m² | - |
| 1778006968 | 11.11° C | 69% | 1011.8 hPa | 0 mm | - | 165 W/m² | - |
| 1778006666 | 11.11° C | 74% | 1011.9 hPa | 0 mm | - | 153 W/m² | - |
| 1778006362 | 11.11° C | 73% | 1011.8 hPa | 0 mm | - | 155 W/m² | - |
| 1778006059 | 11.67° C | 68% | 1011.7 hPa | 0 mm | - | 168 W/m² | - |
| 1778005756 | 11.67° C | 72% | 1011.8 hPa | 0 mm | - | 211 W/m² | - |
| 1778005453 | 11.11° C | 72% | 1011.6 hPa | 0 mm | - | 280 W/m² | - |
| 1778005149 | 11.11° C | 70% | 1011.5 hPa | 0 mm | - | 271 W/m² | - |
| 1778004846 | 11.11° C | 73% | 1011.7 hPa | 0 mm | - | 253 W/m² | - |
| 1778004543 | 10.56° C | 73% | 1011.6 hPa | 0 mm | - | 216 W/m² | - |
| 1778004240 | 10.56° C | 74% | 1011.8 hPa | 0 mm | - | 208 W/m² | - |
| 1778003936 | 10.56° C | 72% | 1011.8 hPa | 0 mm | - | 216 W/m² | - |
| 1778003633 | 10.56° C | 76% | 1011.8 hPa | 0 mm | - | 174 W/m² | - |
| 1778003329 | 10.56° C | 78% | 1011.7 hPa | 0 mm | - | 206 W/m² | - |
| 1778003027 | 10.56° C | 76% | 1011.8 hPa | 0 mm | - | 206 W/m² | - |
| 1778002722 | 10.56° C | 78% | 1012.1 hPa | 0 mm | - | 232 W/m² | - |
| 1778002419 | 10.56° C | 77% | 1012.3 hPa | 0 mm | - | 246 W/m² | - |
| 1778002116 | 10.56° C | 78% | 1012.5 hPa | 0 mm | - | 237 W/m² | - |
| 1778001814 | 10.56° C | 77% | 1012.5 hPa | 0 mm | - | 172 W/m² | - |
| 1778001513 | 10.56° C | 76% | 1012.4 hPa | 0 mm | - | 151 W/m² | - |
| 1778001211 | 10.56° C | 80% | 1012.2 hPa | 0 mm | - | 222 W/m² | - |
| 1778000907 | 10.56° C | 81% | 1012.4 hPa | 0 mm | - | 230 W/m² | - |
| 1778000604 | 10° C | 83% | 1012.8 hPa | 0 mm | - | 237 W/m² | - |
| 1778000299 | 10° C | 84% | 1012.7 hPa | 0 mm | - | 235 W/m² | - |
| 1777999995 | 10° C | 82% | 1012.9 hPa | 0 mm | - | 200 W/m² | - |
* Rain latest hour (hover to see other rain measurements)
** Current wind speed in m/s (hover to see current wind gust speed)